Stations météo

réclame
Mon MeteoGroup
Nikkaluokta, Suède (2036): Température de l'air & dewpoint: 17.01.2018 02:00:00 - 23.01.2018 02:00:00 (CET)Nikkaluokta, Suède (2036): Vitesse du vent & gusts: 17.01.2018 02:00:00 - 23.01.2018 02:00:00 (CET)Nikkaluokta, Suède (2036): Direction du vent: 17.01.2018 02:00:00 - 23.01.2018 02:00:00 (CET)Nikkaluokta, Suède (2036): reduced air pressure: 17.01.2018 02:00:00 - 23.01.2018 02:00:00 (CET)Nikkaluokta, Suède (2036): visibility: 17.01.2018 02:00:00 - 23.01.2018 02:00:00 (CET)Nikkaluokta, Suède (2036): Quantités de précipitations: 17.01.2018 02:00:00 - 23.01.2018 02:00:00 (CET)
Date & Time tt [°C] td [°C] ff [km/h] ff [knt] fx [km/h] fx [knt] dd ppp [hPa] vv [km] rr [mm]
23.01.2018 02:00:00 -34,9 -38,4 2 1 7 4 SSW 1017,5 50 0,0
23.01.2018 01:00:00 -34,7 -38,5 6 3 16 9 NW 1017,7 50 0,0
23.01.2018 00:00:00 -34,7 -38,1 9 5 10 6 NW 1018,2 50 0,0
22.01.2018 23:00:00 -34,8 -38,5 2 1 8 4 S 1018,3 50 0,0
22.01.2018 22:00:00 -34,3 -37,9 5 3 15 8 S 1018,2 50 0,0
22.01.2018 21:00:00 -34,4 -38,0 5 3 8 4 WNW 1018,3 50 0,0
22.01.2018 20:00:00 -33,3 -36,9 3 2 7 4 E 1018,3 50 0,0
22.01.2018 19:00:00 -31,9 -35,4 4 2 13 7 WNW 1018,1 50 0,0
22.01.2018 18:00:00 -32,7 -36,0 6 4 9 5 W 1018,1 27 0,0
22.01.2018 17:00:00 -31,2 -34,3 5 3 7 4 NW 1017,8 50 0,0
22.01.2018 16:00:00 -28,8 -32,0 5 3 8 4 NW 1017,2 20 0,0
22.01.2018 15:00:00 -27,5 -30,6 4 2 6 3 WSW 1017,1 30 0,0
22.01.2018 14:00:00 -28,4 -31,4 2 1 6 3 E 1017,2 50 0,0
22.01.2018 13:00:00 -29,0 -32,0 5 3 11 6 WNW 1017,0 47 0,0
22.01.2018 12:00:00 -28,3 -31,3 9 5 13 7 W 1017,0 42 0,1
22.01.2018 11:00:00 -26,7 -30,5 7 4 11 6 WNW 1017,0 41 0,0
22.01.2018 10:00:00 -22,0 -24,8 11 6 13 7 NW 1016,3 3,5 0,0
22.01.2018 09:00:00 -21,2 -23,7 2 1 5 3 NNW 1016,1 8 0,0
22.01.2018 08:00:00 -21,5 -24,2 4 2 10 5 N 1016,1 - 0,0
22.01.2018 07:00:00 -22,0 -24,7 8 4 10 6 NW 1015,8 10 0,0
22.01.2018 06:00:00 -22,8 -25,4 3 2 6 3 WSW 1016,1 6 0,0
22.01.2018 05:00:00 -23,5 -26,3 3 1 7 4 SE 1016,1 6 0,0
22.01.2018 04:00:00 -23,7 -26,3 2 1 5 3 NNE 1016,0 8 0,0
22.01.2018 03:00:00 -24,2 -26,9 3 2 7 4 W 1016,5 4,2 0,0
22.01.2018 02:00:00 -24,9 -27,6 2 1 6 3 NNW 1016,7 16 0,0
22.01.2018 01:00:00 -27,1 -29,9 3 1 9 5 NNW 1017,0 12 0,0
22.01.2018 00:00:00 -28,4 -31,3 4 2 8 5 SW 1017,3 5 0,0
21.01.2018 23:00:00 -28,6 -31,6 4 2 7 4 SW 1017,4 34 0,0
21.01.2018 22:00:00 -28,6 -31,8 5 3 9 5 WSW 1017,6 50 0,0
21.01.2018 21:00:00 -26,1 -29,1 4 2 11 6 W 1017,1 4,5 0,0
21.01.2018 20:00:00 -27,2 -30,0 4 2 7 4 WSW 1017,3 2,5 0,0
21.01.2018 19:00:00 -29,4 -32,1 7 4 16 9 WNW 1017,6 32 0,0
21.01.2018 18:00:00 -30,0 -33,0 8 5 13 7 W 1017,5 13 0,0
21.01.2018 17:00:00 -30,0 -33,3 4 2 7 4 WSW 1017,4 22 0,1
21.01.2018 16:00:00 -28,8 -32,3 4 2 8 4 W 1017,0 13 0,0
21.01.2018 15:00:00 -24,5 -27,5 2 1 8 4 S 1016,0 9 0,0
21.01.2018 14:00:00 -20,7 -23,1 3 2 8 5 E 1015,5 6 0,0
21.01.2018 13:00:00 -20,4 -22,9 4 2 6 4 W 1015,2 5 0,0
21.01.2018 12:00:00 -19,7 -22,4 4 2 8 5 W 1015,0 4,7 0,0
21.01.2018 11:00:00 -18,3 -20,8 5 3 8 4 NNW 1015,0 2,9 0,0
21.01.2018 10:00:00 -18,3 -20,6 2 1 5 3 WNW 1015,1 2,6 0,0
21.01.2018 09:00:00 -18,5 -20,8 4 2 9 5 W 1014,8 3,5 0,1
21.01.2018 08:00:00 -18,8 -21,1 3 2 11 6 WNW 1014,9 2,8 0,0
21.01.2018 07:00:00 -19,4 -21,8 5 3 10 5 NW 1014,7 1,6 0,0
21.01.2018 06:00:00 -18,9 -21,3 6 3 9 5 NW 1014,6 3,1 0,0
21.01.2018 05:00:00 -19,1 -21,5 5 3 7 4 NW 1014,6 3,0 0,0
21.01.2018 04:00:00 -19,5 -21,9 4 2 7 4 NW 1014,6 4,1 0,0
21.01.2018 03:00:00 -19,4 -21,8 4 2 7 4 W 1014,2 6 0,0
21.01.2018 02:00:00 -19,8 -22,2 4 2 9 5 NW 1014,5 3,9 0,0
21.01.2018 01:00:00 -19,9 -22,3 5 3 9 5 NW 1014,6 3,8 0,1
21.01.2018 00:00:00 -19,9 -22,3 3 2 7 4 W 1014,8 2,6 0,0
20.01.2018 23:00:00 -20,4 -22,9 5 3 16 8 NW 1014,8 4,1 0,0
20.01.2018 22:00:00 -20,9 -23,6 10 6 13 7 NW 1014,8 4,0 0,0
20.01.2018 21:00:00 -21,4 -24,1 5 3 9 5 WNW 1014,9 3,2 0,0
20.01.2018 20:00:00 -21,9 -24,6 4 2 8 4 WNW 1014,8 2,1 0,0
20.01.2018 19:00:00 -22,6 -25,2 4 2 11 6 N 1014,6 4,8 0,0
20.01.2018 18:00:00 -23,3 -25,9 8 4 11 6 NW 1014,8 3,9 0,0
20.01.2018 17:00:00 -24,2 -26,9 3 2 9 5 NW 1015,0 2,1 0,0
20.01.2018 16:00:00 -25,9 -28,9 6 3 11 6 NNW 1015,1 2,3 0,0
20.01.2018 15:00:00 -26,5 -29,7 6 4 9 5 NW 1014,8 3,9 0,0
20.01.2018 14:00:00 -26,6 -29,7 4 2 8 4 W 1014,6 2,9 0,0
20.01.2018 13:00:00 -28,5 -31,7 3 2 8 4 N 1014,7 4,0 0,0
20.01.2018 12:00:00 -28,6 -31,8 2 1 9 5 NNW 1014,6 4,4 0,0
20.01.2018 11:00:00 -28,4 -31,6 7 4 11 6 WNW 1014,7 3,3 0,0
20.01.2018 10:00:00 -28,8 -32,0 4 2 9 5 WNW 1014,7 1,2 0,0
20.01.2018 09:00:00 -29,2 -32,4 4 2 10 5 E 1014,2 2,2 0,0
20.01.2018 08:00:00 -30,0 -33,1 6 3 9 5 W 1013,3 4,1 0,0
20.01.2018 07:00:00 -30,3 -33,6 3 2 8 4 NW 1013,0 5 0,1
20.01.2018 06:00:00 -28,5 -31,7 4 2 15 8 W 1012,4 2,4 0,0
20.01.2018 05:00:00 -28,6 -31,8 5 3 10 5 NNW 1012,4 6 0,0
20.01.2018 04:00:00 -27,5 -30,6 3 2 9 5 NW 1011,9 2,3 0,0
20.01.2018 03:00:00 -26,9 -29,8 4 2 12 6 SSW 1011,5 1,5 0,0
20.01.2018 02:00:00 -27,0 -30,1 5 3 11 6 E 1011,4 6 0,0
20.01.2018 01:00:00 -28,7 -31,8 3 2 11 6 NNE 1011,2 4,5 0,0
20.01.2018 00:00:00 -28,2 -31,4 3 1 11 6 NW 1010,9 4,1 0,0
19.01.2018 23:00:00 -26,3 -29,3 5 3 9 5 NW 1010,5 3,0 0,0
19.01.2018 22:00:00 -25,6 -28,4 6 4 11 6 W 1010,0 2,3 0,0
19.01.2018 21:00:00 -25,6 -28,4 4 2 10 5 WNW 1009,8 2,8 0,0
19.01.2018 20:00:00 -24,6 -27,2 5 3 16 9 SSE 1009,2 2,7 0,0
19.01.2018 19:00:00 -26,3 -29,1 5 3 9 5 ESE 1009,1 1,8 0,0
19.01.2018 18:00:00 -26,5 -29,3 6 3 9 5 WNW 1009,0 5 0,0
19.01.2018 17:00:00 -26,4 -29,4 5 3 9 5 NW 1008,8 2,3 0,0
19.01.2018 16:00:00 -26,3 -29,4 3 2 7 4 NW 1008,5 9 0,1
19.01.2018 15:00:00 -26,0 -28,8 4 2 11 6 NW 1008,3 9 0,0
19.01.2018 14:00:00 -25,6 -27,9 9 5 12 7 WNW 1008,2 11 0,0
19.01.2018 13:00:00 -23,8 -26,8 3 2 8 4 S 1007,7 7 0,1
19.01.2018 12:00:00 -21,0 -23,7 5 3 6 4 WNW 1007,5 2,0 0,0
19.01.2018 11:00:00 -19,5 -21,9 3 2 4 2 NW 1007,2 2,7 0,0
19.01.2018 10:00:00 -19,7 -22,0 2 1 5 3 W 1007,2 2,2 0,1
19.01.2018 09:00:00 -19,8 -22,4 2 1 7 4 NNW 1007,0 2,1 0,0
19.01.2018 08:00:00 -19,3 -21,6 3 2 5 3 SW 1007,0 2,2 0,0
19.01.2018 07:00:00 -19,6 -22,0 1 1 5 3 SW 1006,9 1,8 0,0
19.01.2018 06:00:00 -19,8 -22,2 3 1 5 3 S 1006,9 12 0,0
19.01.2018 05:00:00 -20,2 -22,6 4 2 8 4 NE 1006,9 4,1 0,1
19.01.2018 04:00:00 -20,8 -23,3 4 2 10 5 ENE 1007,2 3,0 0,0
19.01.2018 03:00:00 -21,8 -24,2 5 3 9 5 NW 1007,8 2,1 0,1
19.01.2018 02:00:00 -23,0 -25,5 3 2 6 4 WSW 1008,1 4,2 0,0
19.01.2018 01:00:00 -22,8 -25,4 2 1 13 7 NNW 1008,0 2,6 0,1
19.01.2018 00:00:00 -20,5 -22,9 8 4 14 8 E 1007,6 3,5 0,0
18.01.2018 23:00:00 -20,9 -23,3 2 1 5 3 E 1007,9 1,9 0,0
18.01.2018 22:00:00 -22,1 -24,5 3 1 9 5 S 1008,3 2,6 0,0
18.01.2018 21:00:00 -23,9 -26,4 3 2 16 9 SSW 1008,5 2,1 0,0
18.01.2018 20:00:00 -22,8 -25,3 5 3 8 5 WSW 1007,7 2,3 0,0
18.01.2018 19:00:00 -24,3 -27,2 2 1 5 3 SSE 1007,8 3,6 0,0
18.01.2018 18:00:00 -24,0 -26,6 3 2 6 4 ENE 1007,5 2,5 0,0
18.01.2018 17:00:00 -23,9 -26,4 3 2 9 5 WSW 1007,5 21 0,0
18.01.2018 16:00:00 -20,4 -22,8 7 4 9 5 SE 1007,0 2,7 0,1
18.01.2018 15:00:00 -18,1 -20,4 2 1 9 5 SW 1006,2 1,1 0,1
18.01.2018 14:00:00 -17,9 -20,2 2 1 9 5 SSW 1006,3 0,8 0,0
18.01.2018 13:00:00 -17,7 -20,0 6 3 9 5 SSE 1006,2 3,0 0,1
18.01.2018 12:00:00 -17,7 -20,0 3 2 8 4 SE 1006,1 1,1 0,1
18.01.2018 11:00:00 -17,8 -20,0 5 3 13 7 SE 1006,2 1,3 0,1
18.01.2018 10:00:00 -17,7 -19,9 4 2 17 9 N 1006,1 1,5 0,0
18.01.2018 09:00:00 -17,2 -19,5 8 5 23 12 ESE 1005,9 3,3 0,1
18.01.2018 08:00:00 -17,4 -19,6 6 3 13 7 SE 1005,5 2,4 0,1
18.01.2018 07:00:00 -17,4 -19,6 9 5 13 7 ESE 1005,4 6 0,1
18.01.2018 06:00:00 -17,1 -19,3 6 4 11 6 SE 1005,2 1,4 0,2
18.01.2018 05:00:00 -17,3 -19,5 6 3 12 7 SE 1005,5 2,1 0,1
18.01.2018 04:00:00 -17,8 -19,8 6 3 18 10 S 1005,6 4,3 0,1
18.01.2018 03:00:00 -17,2 -19,4 6 3 12 7 SE 1005,5 2,0 0,2
18.01.2018 02:00:00 -16,6 -18,7 7 4 12 6 SE 1005,6 3,3 0,1
18.01.2018 01:00:00 -17,4 -19,4 6 3 10 5 SSW 1005,6 2,7 0,0
18.01.2018 00:00:00 -16,5 -18,4 7 4 10 6 S 1005,5 2,7 0,2
17.01.2018 23:00:00 -16,7 -18,8 5 3 16 9 SSE 1005,7 4,9 0,1
17.01.2018 22:00:00 -16,2 -18,3 3 2 19 10 S 1005,8 6 0,0
17.01.2018 21:00:00 -15,5 -17,4 9 5 17 9 SE 1005,8 6 0,0
17.01.2018 20:00:00 -15,2 -17,3 6 4 16 9 SE 1005,6 5 0,0
17.01.2018 19:00:00 -14,4 -16,5 6 3 18 10 SE 1005,6 8 0,0
17.01.2018 18:00:00 -13,9 -15,9 13 7 20 11 E 1005,6 7 0,0
17.01.2018 17:00:00 -14,0 -16,1 9 5 16 9 ESE 1005,2 11 0,0
17.01.2018 16:00:00 -14,7 -16,9 11 6 21 11 SE 1005,2 28 0,0
17.01.2018 15:00:00 -14,6 -17,0 13 7 23 12 ESE 1004,9 35 0,0
17.01.2018 14:00:00 -14,1 -17,1 13 7 28 15 ENE 1004,9 50 0,0
17.01.2018 13:00:00 -10,5 -14,6 13 7 23 13 S 1004,0 15 0,0
17.01.2018 12:00:00 -10,5 -13,6 7 4 24 13 E 1003,6 7 0,0
17.01.2018 11:00:00 -10,2 -13,0 11 6 22 12 ESE 1003,3 8 0,0
17.01.2018 10:00:00 -10,0 -12,3 14 8 27 14 E 1003,0 3,4 0,0
17.01.2018 09:00:00 -9,9 -12,4 20 11 32 17 ENE 1002,5 11 0,0
17.01.2018 08:00:00 -9,5 -12,3 8 5 23 12 SSE 1001,7 12 0,0
17.01.2018 07:00:00 -10,0 -11,7 11 6 24 13 SE 1001,3 2,2 0,0
17.01.2018 06:00:00 -9,7 -11,9 7 4 16 9 SE 1000,6 6 0,1
17.01.2018 05:00:00 -8,7 -11,4 7 4 23 12 ESE 999,9 2,2 0,0
17.01.2018 04:00:00 -8,9 -12,4 5 3 16 9 W 999,7 7 0,0
17.01.2018 03:00:00 -8,9 -12,4 8 4 23 12 NNE 999,8 3,8 0,0
17.01.2018 02:00:00 -9,1 -12,1 17 9 40 21 ENE 999,6 1,0 0,0

tt = Température de l'air
td = dewpoint
ff = Vitesse du vent
fx = gusts
dd = Direction du vent
ppp = reduced air pressure
vv = visibility
rr = Quantités de précipitations

stations d'obs. à proximité